User: anonymous   Login
Location: Unspecified
(0.0000°N, 0.0000°E)
Time: 16:45:41
(UTC+00:00)
Language:

NOAA 2 - Orbit

View from above orbital plane
View from above orbital plane
View from above satellite
View from above satellite

Ground track
Ground track

The orbit data is extracted from the following two-line orbital elements,

1  6235U 72082A   19015.93346226 -.00000020 +00000-0 +15760-3 0  9991
2  6235 101.7729 343.6334 0003979 315.2452 096.7054 12.53110880115581
Epoch (UTC): 15 January 2019 22:24:11
Eccentricity: 0.0003979
inclination: 101.7729°
perigee height: 1448 km
apogee height: 1454 km
right ascension of ascending node: 343.6334°
argument of perigee: 315.2452°
revolutions per day: 12.53110880
mean anomaly at epoch: 96.7054°
orbit number at epoch: 11558

The dashed part of the orbit path shows where the satellite is in the earth's shadow,  

DLR